Weather History for Cocoa Beach, FL

Change the Weather History Date:

Wednesday, August 7, 2013

  Actual Average (KCOF) Record (KCOF)
Temperature  
Mean Temperature 81 °F -  
Max Temperature 88 °F 85 °F 95 °F (2011)
Min Temperature 75 °F 74 °F 73 °F (1997)
Cooling Degree Days 16    
Growing Degree Days 31 (Base 50)    
Moisture  
Dew Point 76 °F    
Average Humidity 84    
Maximum Humidity 95    
Minimum Humidity 71    
Precipitation  
Precipitation 0.00 in - - ()
Sea Level Pressure  
Sea Level Pressure 29.97 in    
Wind  
Wind Speed 5 mph (ESE)    
Max Wind Speed 10 mph    
Max Gust Speed -    
Visibility 10 miles    
Events      
Averages and records for this station are not official NWS values.
T = Trace of Precipitation, MM = Missing Value Source: NWS Daily Summary

Daily Weather History Graph

Daily Weather History Graph

Search for Another Location

Airport:

Trip Planner

Search our weather history database for the weather conditions in past years. The results will help you decide how hot, cold, wet, or windy it might be!

Date:

Astronomy

Aug. 07, 2013 Rise Set
Actual Time 6:47 AM EDT 8:08 PM EDT
Civil Twilight 6:22 AM EDT 8:33 PM EDT
Nautical Twilight 5:52 AM EDT 9:03 PM EDT
Astronomical Twilight 5:21 AM EDT 9:34 PM EDT
Moon 7:25 AM EDT (8/7) 8:26 PM EDT (8/7)
Length of Visible Light 14h 10m
Length of Day
13h 20m
New Moon, 1% of the Moon is Illuminated
Aug 7
New Moon
Aug 14
First Quarter
Aug 20
Full
Aug 28
Last Quarter
Sep 5
New

Hourly Weather History & Observations

Time (EDT) Temp. Heat Index Dew Point Humidity Pressure Visibility Wind Dir Wind Speed Gust Speed Precip Events Conditions
12:58 AM 77.0 °F - 74.7 °F 92% 29.97 in 10.0 mi ESE 2.3 mph - N/A   Clear
1:58 AM 77.7 °F - 75.9 °F 94% 29.97 in 10.0 mi ENE 2.3 mph - N/A   Clear
2:58 AM 77.7 °F - 75.6 °F 93% 29.94 in 10.0 mi East 4.6 mph - N/A   Clear
3:58 AM 77.7 °F - 75.4 °F 92% 29.94 in 10.0 mi ESE 1.2 mph - N/A   Clear
4:58 AM 77.0 °F - 75.4 °F 95% 29.94 in 10.0 mi ESE 3.5 mph - N/A   Clear
5:58 AM 75.9 °F - 74.1 °F 94% 29.95 in 10.0 mi ESE 4.6 mph - N/A   Clear
6:58 AM 76.1 °F - 74.7 °F 95% 29.96 in 10.0 mi SE 3.5 mph - N/A   Clear
7:58 AM 79.7 °F - 77.4 °F 93% 29.97 in 10.0 mi ESE 2.3 mph - N/A   Clear
8:58 AM 83.7 °F 91.7 °F 75.6 °F 76% 29.98 in 10.0 mi ESE 8.1 mph - N/A   Clear
9:58 AM 86.0 °F 96.0 °F 76.1 °F 72% 29.99 in 10.0 mi SSE 8.1 mph - N/A   Clear
10:15 AM 86.0 °F 96.9 °F 77.0 °F 74% 29.98 in 10.0 mi SE 9.2 mph - N/A   Light Drizzle
10:17 AM 86.0 °F 96.9 °F 77.0 °F 74% 29.98 in 10.0 mi SE 9.2 mph - N/A   Clear
10:58 AM 87.1 °F 98.8 °F 77.2 °F 72% 30.00 in 10.0 mi SSE 9.2 mph - 0.00 in   Partly Cloudy
11:58 AM 87.8 °F 100.2 °F 77.5 °F 71% 30.00 in 10.0 mi Variable 6.9 mph - N/A   Clear
12:58 PM 86.9 °F 97.8 °F 76.6 °F 71% 30.00 in 10.0 mi ESE 8.1 mph - N/A   Scattered Clouds
1:58 PM 86.0 °F 96.4 °F 76.6 °F 73% 29.99 in 10.0 mi ESE 8.1 mph - N/A   Partly Cloudy
3:55 PM 84.2 °F 94.1 °F 77.0 °F 79% 29.95 in 10.0 mi ESE 6.9 mph - N/A   Clear
4:58 PM 85.5 °F 97.2 °F 77.7 °F 78% 29.97 in 10.0 mi SE 9.2 mph - N/A   Clear
5:58 PM 84.0 °F 94.4 °F 77.7 °F 81% 29.95 in 10.0 mi SE 8.1 mph - N/A   Partly Cloudy
6:58 PM 84.2 °F 93.4 °F 76.5 °F 77% 29.95 in 10.0 mi SSE 10.4 mph - N/A   Clear
7:58 PM 82.2 °F 90.4 °F 77.0 °F 84% 29.96 in 10.0 mi SSE 8.1 mph - N/A   Clear
8:58 PM 80.1 °F 85.7 °F 76.6 °F 89% 29.99 in 10.0 mi ESE 4.6 mph - N/A   Clear
9:58 PM 79.0 °F - 76.3 °F 91% 30.00 in 10.0 mi ESE 4.6 mph - N/A   Clear
10:58 PM 78.3 °F - 75.9 °F 92% 30.00 in 10.0 mi SE 4.6 mph - N/A   Clear
11:58 PM 79.0 °F - 76.6 °F 92% 30.00 in 10.0 mi SE 4.6 mph - N/A   Clear